星链-3959 (STARLINK-3959 )

导读

STARLINK-3959是美国太空探索技术公司(SpaceX)发射的星链(Starlink)互联网卫星,于2022年5月13日发射升空,属于星链卫星互联网计划的组成部分,旨在为全球用户提供低延迟、高速率的宽带互联网服务,目前在轨运行服务全球网络覆盖。

Basic Information
目录编号:
52564
目录名称:
STARLINK-3959
国际标识:
2022-051AH
轨道中心:
EARTH
卫星名称:
星链-3959
卫星全名:
星链-3959 (STARLINK-3959 )
卫星状态:
在轨 (已飞行1583 天)
发射日期:
2022-05-13 UTC
国别 :
美国 (US)
星等 :
--
This satellite is enrolled in the Space Conjunction Data Service (SCDS) and the current flight risk assessment level is: No High Risk
Orbit Information
数据来源 国际轨道数据
星历时间: 2026-09-12T08:00:02+0800
8小时前
查看轨道信息
半长轴: 6848.875km
偏心率: 0.0001412
轨道倾角: 53.162°
近地点辐角 91.268°
升交点赤经 14.053°
平近点角 268.979°
近地点: 469.77km
远地点: 471.706km
周期: 94.013分钟
每日圈数: 15.317008
Detailed Information
固有亮度:
5
最大亮度:
2.5
卫星平台:
Starlink v1.5
覆盖范围:
全球
运营商:
太空探索技术公司
运营商所在国:
美国
制造商(研发单位):
太空探索技术公司
制造商所在国:
美国
使用方式:
暂无
Satellite Introduction
星链(Starlink)计划是由太空探索技术公司(SpaceX)提出的一个巨型低轨卫星互联网星座项目,计划在2019年至2024年间在太空搭建由约1.2万颗卫星组成的“星链”网络,其中1584颗将部署在地球上空550千米处的近地轨道,并从2020年开始工作。该卫星仍在工作。
2D Orbit Map
3D Orbit Map
Orbit Altitude Analysis Chart
Orbit Inclination Analysis Chart
Orbit Comprehensive Analysis Chart
View Comprehensive Chart
Conjunction Data List
Event ID Objects TCA Miss Dist (km) Collision Risk Probability Collision Risk Index (CRI) Action
CDM_260914-164205-256405-400621
2026-09-14T
16:42:24+0000
0.900 km
远距离
2.385216E-5 中风险 0.63
CDM_260914-210305-256406-409621
2026-09-14T
21:03:46+0000
1.204 km
极远距离
1.172059E-5 中风险 0.56
CDM_260914-080505-256405-400621
2026-09-14T
08:05:36+0000
1.206 km
极远距离
8.695387E-6 低风险 0.54
CDM_260914-061905-256406-417121
2026-09-14T
06:19:15+0000
1.214 km
极远距离
8.182058E-6 低风险 0.53
CDM_260914-032605-256406-324321
HERMES-2 (63243)
2026-09-14T
03:26:55+0000
1.677 km
极远距离
4.58416E-6 低风险 0.48
CDM_260914-005005-256406-417121
2026-09-14T
00:50:23+0000
1.547 km
极远距离
3.67834E-6 低风险 0.46
CDM_260914-201005-256405-700421
OBJECT A (57004)
2026-09-14T
20:10:22+0000
1.807 km
极远距离
2.0785E-6 低风险 0.41
CDM_260915-002305-228705-256421
2026-09-15T
00:23:14+0000
1.878 km
极远距离
1.380577E-6 低风险 0.38
CDM_260913-092605-256406-553721
2026-09-13T
09:26:19+0000
2.631 km
极远距离
1.102799E-6 低风险 0.36
CDM_260914-093905-256405-400621
2026-09-14T
09:39:33+0000
2.758 km
极远距离
1.004623E-6 低风险 0.35
Miss Distance Evolution Trend with All Objects
Collision Probability Evolution Trend with All Objects